CZ-6A DEB, 54307

Orbit data source: Space-Track

CZ-6A DEB, 54307 is space debris in SSO originally from a launch on Fri, 11 Nov 2022 UTC launched from the Taiyaun Space Center, China (TSC). Debris objects in space refer to the collection of defunct objects orbiting the Earth. Examples of debris include non-operational satellites, rocket bodies, and fragments generated from explosions, collisions, or faulty payload assembly.

Loading next visibility...
Identifier
54307, 2022-151BA
Orbit
SSO
Country
Flag of CNCN / PRC
Related business
Manufacturer
SAST
Mission
Spacecraft
Bus & Motor
Unknown
Mass
Unknown
Launch date (UTC)
2022-11-11 (4 years ago)
Launch vehicle
Unknown
Launch site
Taiyaun Space Center, China (TSC)
Object type
Payload
Rocket body
Debris
Shape & HBR
Unknown shape, 0.1 m
Radar Cross Section
Medium (>0.1 m² and <1 m²)

Expand to show TLE details & history
Last TLE update: 2 days ago

TLE from 2 days ago
0 CZ-6A DEB
1 54307U 22151BA  26171.14639588  .00052715  00000-0  36455-2 0  9996
2 54307  98.5555 241.7659 0039298 222.2081 137.6116 15.04868769120024
Epoch: 2026-06-20T03:30Z
TLE epoch observation values (Epoch: 2026-06-20T03:30:48.604Z)
Latitude
0.00006°
Longitude
-79.30183°
Altitude
575.11 km
Speed
7.562 km/s
True Right ascension
16h 07m 03s
True Declination
0° 00' 00"
Sunlit
Object was in full shadow at epoch
Visualization orbit readout
Latitude
Unknown
Longitude
Unknown
Altitude
Unknown
Speed
Unknown
Apparent Right ascension
Unknown
Apparent Declination
Unknown
Sunlit
N/A
Visualization observer readout
Local Sidereal Time
21:28:41
Azimuth
Unknown
Elevation
Unknown
Doppler factor
Unknown
Orbital elements
Apogee altitude
576.169 km
Perigee altitude
521.725 km
Semi-major axis
6,927.084 km
Eccentricity
0.00393
Inclination
98.5555°
RAAN
241.7659°
Arg. of periapsis
222.2081°
True anomaly
137.91409°
Mean anomaly
137.6116°
Eccentric anomaly
137.76295°
Mean motion
3.76459 °/min
Orbital period
95.63 mins
BSTAR
0.0036455
Loading maneuver chart data...
Computing Atmospheric mass density...
Loading historical data...
Loading historical data...
Loading historical data...
Loading historical data...
Loading historical data...
Loading historical data...
Loading historical data...

Documentation

Showing up to 5 results
|